Terug naar catalogus

STARLINK-3578

ActiefCommunicatieVLEO
NORAD 51868·PAYLOAD·🇺🇸 United States

Gelanceerd Mar 3, 2022 vanaf Cape Canaveral Space Force Station

Loading…

Volgende Passages (komende 24 uur)

TLE

VersSource: CelesTrak SupGP

Epoch: Sep 14, 2026, 22:00 UTC

1 51868C 22022S   26257.91715278  .00009856  00000+0  28190-3 0  2575
2 51868  53.1593 229.5202 0001369  91.8710 280.4409 15.35402196    17

Volg STARLINK-3578 in realtime met AllMySat

Download on the App Store